Regional Weather Roundup
Issued by NWS Charleston, WV

Home | Current Version | Previous Version | Graphics & Text | Print | Product List | Glossary On
Versions: 1 2 3 4 5 6 7 8 9 10 11 12 13 14 15 16 17 18 19 20 21 22 23 24 25 26 27 28 29 30 31 32 33 34 35 36 37 38 39 40 41 42 43 44 45 46 47 48 49 50
000
ASUS41 KRLX 122010
RWRRLX
West Virginia Regional Weather Roundup
National Weather Service Charleston WV
400 PM EDT SAT JUL 12 2014

Note: "fair" indicates few or no clouds below 12,000 feet with no
significant weather and/or obstructions to visibility.

WVZ003-122100-
Northern Panhandle of West Virginia

CITY           SKY/WX    TMP DP  RH WIND       PRES   REMARKS
WHEELING       PTSUNNY   85  61  44 W9        30.16F
$$

WVZ009-122100-
Northwest West Virginia

CITY           SKY/WX    TMP DP  RH WIND       PRES   REMARKS
PARKERSBURG    PTSUNNY   87  60  40 W10       30.17F
$$

WVZ006-122100-
Western West Virginia

CITY           SKY/WX    TMP DP  RH WIND       PRES   REMARKS
HUNTINGTON     MOSUNNY   91  52  26 SW8       30.15F
$$

WVZ015-122100-
West Central West Virginia

CITY           SKY/WX    TMP DP  RH WIND       PRES   REMARKS
CHARLESTON     MOSUNNY   92  58  31 W8G16     30.15F
$$

WVZ031-122100-
North Central West Virginia

CITY           SKY/WX    TMP DP  RH WIND       PRES   REMARKS
CLARKSBURG     MOSUNNY   86  57  37 W9        30.17F
MORGANTOWN     MOSUNNY   87  55  33 MISG      30.19F
$$

WVZ035-042-045-122100-
South Central West Virginia

CITY           SKY/WX    TMP DP  RH WIND       PRES   REMARKS
BECKLEY        MOSUNNY   84  58  40 SW6       30.25F
BLUEFIELD      MOSUNNY   82  61  48 NW8       30.28F
LEWISBURG      MOSUNNY   87  57  35 W7        30.23F
$$

WVZ047-122100-
Northern Mountains of West Virginia

CITY           SKY/WX    TMP DP  RH WIND       PRES   REMARKS
ELKINS         MOSUNNY   85  59  41 NW9       30.22F
$$

WVZ052-122100-
Eastern Panhandle of West Virginia

CITY           SKY/WX    TMP DP  RH WIND       PRES   REMARKS
MARTINSBURG    MOSUNNY   82  67  60 S8        30.15F
PETERSBURG     MOSUNNY   87  51  28 E5        30.14F
$$


USA.gov is the U.S. government's official web portal to all federal, state and local government web resources and services.